Location: Palau
(42.3086°N, 3.1507°E)
Time: 00:15:56
(UTC+00:00)

SL-19 R/B - Pass Details

Date: 26 May 2020
Orbit: 796 x 1009 km, 99.4° (Epoch: 11 July)

Event Time Altitude Azimuth Distance (km) Brightness Sun altitude
Rises 00:51:22 0° 13° (NNE) 3,364 8.7 -24.7°
Reaches altitude 10° 00:53:40 10° 13° (NNE) 2,448 7.7 -24.5°
Maximum altitude 00:59:06 84° 286° (WNW) 871 4.1 -24.2°
Enters shadow 01:00:12 59° 206° (SSW) 994 4.2 -24.1°
